Regional Weather Roundup
Issued by NWS

Home | Current Version | Previous Version | Graphics & Text | Print | Product List | Glossary Off
Versions: 1 2 3 4 5 6 7 8 9 10 11 12 13 14 15 16 17 18 19 20 21 22 23 24 25 26 27 28 29 30 31 32 33 34 35 36 37 38 39 40 41 42 43 44 45 46 47 48 49 50

000
ASUS43 KMKX 260021
RWRWI

WISCONSIN REGIONAL WEATHER ROUNDUP
NATIONAL WEATHER SERVICE MILWAUKEE/SULLIVAN WI
700 PM CDT MON JUL 25 2016

NOTE: "FAIR" INDICATES FEW OR NO CLOUDS BELOW 12,000 FEET WITH NO
SIGNIFICANT WEATHER AND/OR OBSTRUCTIONS TO VISIBILITY.

WIZ001-002-006>008-014>016-023>028-260100-
NORTHWEST WISCONSIN

CITY           SKY/WX    TMP DP  RH WIND       PRES   REMARKS
SUPERIOR ARPT  SUNNY     83  64  52 W7        29.96S HX  84
6HR MIN TEMP:  81; 6HR MAX TEMP:  85;

ASHLAND        SUNNY     82  62  50 W6        29.97F HX  83
6HR MIN TEMP:  81; 6HR MAX TEMP:  84;

HAYWARD        SUNNY     82  59  45 VRB3      30.01S HX  82
6HR MIN TEMP:  79; 6HR MAX TEMP:  83;

SIREN          SUNNY     82  61  47 NW5       30.01F HX  83
CUMBERLAND     SUNNY     79  59  50 NW6       30.03S HX  80
RICE LAKE      SUNNY     80  61  53 W3        30.03S HX  81
6HR MIN TEMP:  78; 6HR MAX TEMP:  82;

CHETEK         SUNNY     81  63  54 NW5       30.02S HX  83
6HR MIN TEMP:  79; 6HR MAX TEMP:  83;

LADYSMITH      SUNNY     80  62  54 NW5       30.03F HX  81
6HR MIN TEMP:  79; 6HR MAX TEMP:  82;

EAU CLAIRE     SUNNY     82  61  48 NW6       30.00F HX  83
6HR MIN TEMP:  81; 6HR MAX TEMP:  85;

MENOMONIE      SUNNY     83  60  44 NW10G18   30.02S HX  83
6HR MIN TEMP:  83; 6HR MAX TEMP:  86;

NEW RICHMOND   SUNNY     82  60  45 NW5       30.02S HX  82
6HR MIN TEMP:  81; 6HR MAX TEMP:  84;

OSCEOLA        SUNNY     83  63  49 W3        30.04S HX  84
6HR MIN TEMP:  80; 6HR MAX TEMP:  85;

$$

WIZ003>005-009-010-017-018-260100-
NORTH CENTRAL WISCONSIN

CITY           SKY/WX    TMP DP  RH WIND       PRES   REMARKS
MANITOWISH WTR SUNNY     77  59  53 W5        30.02S
6HR MIN TEMP:  75; 6HR MAX TEMP:  80;

ARBOR VITAE    SUNNY     78  57  48 NW8       30.02S
6HR MIN TEMP:  77; 6HR MAX TEMP:  80;

WOODRUFF       SUNNY     78  57  48 NW8       30.02S
6HR MIN TEMP:  77; 6HR MAX TEMP:  80;

RHINELANDER    SUNNY     79  57  46 NW5       30.03R HX  80
6HR MIN TEMP:  78; 6HR MAX TEMP:  82;

EAGLE RIVER    SUNNY     77  55  46 NW8       30.01S
6HR MIN TEMP:  75; 6HR MAX TEMP:  79;

LAND O LAKES   SUNNY     77  55  45 NW8       30.03R
6HR MIN TEMP:  76; 6HR MAX TEMP:  81;

PHILLIPS       MOSUNNY   78  61  55 CALM      30.02S
6HR MIN TEMP:  75; 6HR MAX TEMP:  80;

TOMAHAWK       SUNNY     78  57  48 W7        30.03S
6HR MIN TEMP:  76; 6HR MAX TEMP:  80;

MEDFORD        SUNNY     77  61  56 NW6       30.02F
6HR MIN TEMP:  76; 6HR MAX TEMP:  79;

MERRILL        SUNNY     79  60  51 NW6       30.02S HX  80
6HR MIN TEMP:  78; 6HR MAX TEMP:  81;

$$

WIZ029-030-035-036-043>047-260100-
CENTRAL WISCONSIN

CITY           SKY/WX    TMP DP  RH WIND       PRES   REMARKS
WAUSAU         SUNNY     81  57  43 NW9       30.00R HX  81
6HR MIN TEMP:  79; 6HR MAX TEMP:  83;

MOSINEE        SUNNY     79  59  50 NW6       30.02S HX  80
MARSHFIELD     SUNNY     80  60  50 NW9       30.02S HX  81
6HR MIN TEMP:  80; 6HR MAX TEMP:  83;

STEVENS POINT  SUNNY     79  59  50 W5        30.01S HX  80
6HR MIN TEMP:  78; 6HR MAX TEMP:  81;

WAUPACA        MOSUNNY   83  58  42 NW6       29.98F HX  83
6HR MIN TEMP:  83; 6HR MAX TEMP:  87;

WAUTOMA        SUNNY     81  61  50 NW8       30.00R HX  82
6HR MIN TEMP:  81; 6HR MAX TEMP:  85;

WISC RAPIDS    SUNNY     82  58  43 NW12      30.02S HX  82
6HR MIN TEMP:  82; 6HR MAX TEMP:  85;

CAMP DOUGLAS   MOSUNNY   81  66  61 W5        30.00S HX  83
$$

WIZ011>013-019>022-031-037>040-048>050-260100-
NORTHEAST WISCONSIN

CITY           SKY/WX    TMP DP  RH WIND       PRES   REMARKS
ANTIGO         SUNNY     77  58  52 NW3       30.02S
6HR MIN TEMP:  77; 6HR MAX TEMP:  80;

SHAWANO        MOSUNNY   83  60  45 W3        29.97S HX  83
6HR MIN TEMP:  83; 6HR MAX TEMP:  85;

OCONTO         SUNNY     82  63  52 W3        29.95S HX  83
6HR MIN TEMP:  82; 6HR MAX TEMP:  84;

STURGEON BAY   SUNNY     81  63  54 W3        29.96S HX  82
6HR MIN TEMP:  81; 6HR MAX TEMP:  84;

GREEN BAY      SUNNY     81  65  58 NW6       29.97R HX  83
6HR MIN TEMP:  79; 6HR MAX TEMP:  84;

MANITOWOC      SUNNY     82  63  52 W5        29.97S HX  83
6HR MIN TEMP:  81; 6HR MAX TEMP:  84; 6HR PCP:  0.02;

APPLETON       MOSUNNY   79  57  47 NW7       29.97S HX  80
CLINTONVILLE   SUNNY     82  55  39 NW8       29.98S HX  82
OSHKOSH        SUNNY     82  62  50 NW6       29.98S HX  83
6HR MIN TEMP:  82; 6HR MAX TEMP:  85;

$$

WIZ032>034-041-042-053>061-260100-
SOUTHWEST WISCONSIN

CITY           SKY/WX    TMP DP  RH WIND       PRES   REMARKS
LA CROSSE      SUNNY     84  63  49 N9        30.00F HX  85
6HR MIN TEMP:  82; 6HR MAX TEMP:  86;

SPARTA         SUNNY     81  64  55 NW7       30.02S HX  82
6HR MIN TEMP:  81; 6HR MAX TEMP:  84;

VIROQUA        SUNNY     79  63  57 N7        30.03F HX  81
6HR MIN TEMP:  78; 6HR MAX TEMP:  82;

BOSCOBEL       MOSUNNY   83  64  52 NW5       30.01S HX  84
6HR MIN TEMP:  82; 6HR MAX TEMP:  87;

PRAIRIE DU CHI SUNNY     82  60  47 CALM      30.01R HX  82
6HR MIN TEMP:  80; 6HR MAX TEMP:  83;

PLATTEVILLE    SUNNY     80  65  59 NW5       30.03R HX  82
6HR MIN TEMP:  79; 6HR MAX TEMP:  82;

$$

WIZ056-057-062-063-064-067-068-260100-
SOUTH CENTRAL WISCONSIN

CITY           SKY/WX    TMP DP  RH WIND       PRES   REMARKS
REEDSBURG      SUNNY     81  63  55 NW7       30.00S HX  82
6HR MIN TEMP:  79; 6HR MAX TEMP:  83;

BARABOO/DELLS  SUNNY     80  60  50 W6        30.01R HX  81
6HR MIN TEMP:  79; 6HR MAX TEMP:  83;

LONE ROCK      SUNNY     82  64  54 N7        30.01S HX  83
6HR MIN TEMP:  81; 6HR MAX TEMP:  85;

MINERAL POINT  SUNNY     81  63  54 N3        30.03S HX  82
MADISON        MOSUNNY   83  64  52 NW3       30.00R HX  84
6HR MIN TEMP:  82; 6HR MAX TEMP:  85;

MIDDLETON      SUNNY     82  64  53 NW3       30.02R HX  83
6HR MIN TEMP:  80; 6HR MAX TEMP:  85;

WATERTOWN      SUNNY     80  64  56 NW5       30.00R HX  82
6HR MIN TEMP:  78; 6HR MAX TEMP:  84;

MONROE         SUNNY     81  63  54 N3        30.02R HX  82
JANESVILLE     MOSUNNY   84  61  45 NW6       29.99R HX  84
$$

WIZ051-052-058>065-066-070>072-260100-
SOUTHEAST WISCONSIN

CITY           SKY/WX    TMP DP  RH WIND       PRES   REMARKS
MILWAUKEE      MOSUNNY   81  63  54 SE6       29.98S HX  82
6HR MIN TEMP:  80; 6HR MAX TEMP:  89;

WAUKESHA       SUNNY     79  61  53 NW14      30.01R HX  80
MILWAUKEE/TIMM NOT AVBL
RACINE         SUNNY     81  62  52 S7        30.00S HX  82
6HR MIN TEMP:  81; 6HR MAX TEMP:  87;

BURLINGTON     MOSUNNY   82  64  55 NW5       29.99S HX  83
6HR MIN TEMP:  82; 6HR MAX TEMP:  85;

KENOSHA        MOSUNNY   81  64  56 SE7       29.99S HX  82
6HR MIN TEMP:  81; 6HR MAX TEMP:  87;

FOND DU LAC    SUNNY     82  63  52 NW6       29.99R HX  83
6HR MIN TEMP:  80; 6HR MAX TEMP:  86;

SHEBOYGAN      SUNNY     81  62  52 NW7       29.98S HX  82
6HR MIN TEMP:  81; 6HR MAX TEMP:  84;

WEST BEND      SUNNY     81  59  47 NW6       29.99S HX  81
JUNEAU         SUNNY     80  62  54 W3        30.01S HX  81
6HR MIN TEMP:  78; 6HR MAX TEMP:  82;

$$

LSZ147-162-260100-
LAKE SUPERIOR

STATION/POSITION TIME  TEMP    WIND        PRES    WAVE
                       AIR SEA DIR/SP/G            HT/PER
                 (UTC) (F)     (DEG/KT/KT) (MB)    (FT/S)
W MID LAKE BUOY  2350   65 60  230/  8/ 10 1013.2F   2/ 4
DEVILS ISLAND    0000   75     230/ 12/ 13 1013.7F
SAXON HARBOR     2340   83      CALM  /  4 1014.6F
$$

LMZ867-665-643>646-260100-
LAKE MICHIGAN

STATION/POSITION TIME  TEMP    WIND        PRES    WAVE
                       AIR SEA DIR/SP/G            HT/PER
                 (UTC) (F)     (DEG/KT/KT) (MB)    (FT/S)
CHAMBERS ISLAND  2300   83     310/C1F1C2F2C3F3C4F4C5F5C6F6C7F7C8M1C9M2Ca!



USA.gov is the U.S. government's official web portal to all federal, state and local government web resources and services.